Flag for Sao Tome and Principe Weather past 2 weeks in São Tomé, Sao Tome and Principe

Now
68 °F

Mild.


Feels Like: 68 °F
Forecast: 74 / 78 °F
Wind: 5 mph from Southeast

Location: Neuchatel

Current Time: Aug 1, 2014 at 9:52:22 AM

Latest Report: Aug 1, 2014 at 9:00 AM


Visibility: N/A

Pressure: 29.85 "Hg

Humidity: 75%

Dew point: 60 °F

Location of São ToméLocation

Historic Weather in São Tomé — Graph

°F

São Tomé temperature yesterday

Maximum temperature yesterday: 76 °F (at 2:00 PM)
Minimum temperature yesterday: 60 °F (at 4:00 AM)
Average temperature yesterday: 69 °F

Past Weeks' High & Low Weather Summary

 TemperatureHumidityPressure
High87 °F (Jul 18, 4:00 PM)98% (Jul 22, 11:00 PM)30.15 "Hg (Jul 22, 11:00 PM)
Low58 °F (Jul 27, 3:00 AM)25% (Jul 17, 4:00 PM)29.78 "Hg (Jul 29, 1:00 PM)
Average67 °F75%29.92 "Hg
* Reported Jul 17 8:00 AM — Aug 1 8:00 AM, São Tomé, Weather by CustomWeather, © 2014

Note: Actual official high and low records may vary slightly from our data, if they occured in-between our weather recording intervals... More about our weather records

Advertising

São Tomé weather history for previous 24 hours

 ConditionsComfort  
Time TempWeatherWind HumidityBarometerVisibility
8:00 AM
Aug 1
68 °FMild.7 mph71%29.86 "HgN/A
7:00 AM66 °FMild.3 mph78%29.87 "HgN/A
6:00 AM64 °FMild.1 mph88%29.88 "HgN/A
5:00 AM60 °FCool.1 mph89%29.88 "HgN/A
4:00 AM60 °FCool.No wind89%29.89 "HgN/A
3:00 AM61 °FCool.1 mph89%29.90 "HgN/A
2:00 AM62 °FCool.No wind88%29.90 "HgN/A
1:00 AM62 °FMild.2 mph87%29.90 "HgN/A
12:00 AM64 °FMild.2 mph84%29.90 "HgN/A
11:00 PM
Jul 31
65 °FMild.1 mph80%29.90 "HgN/A
10:00 PM68 °FMild.2 mph75%29.90 "HgN/A
9:00 PM70 °FMild.6 mph65%29.89 "HgN/A
8:00 PM71 °FMild.8 mph63%29.88 "HgN/A
7:00 PM71 °FMild.7 mph64%29.87 "HgN/A
6:00 PM72 °FMild.7 mph56%29.87 "HgN/A
5:00 PM75 °FMild.9 mph53%29.85 "HgN/A
4:00 PM76 °FMild.12 mph51%29.86 "HgN/A
3:00 PM76 °FMild.9 mph52%29.88 "HgN/A
2:00 PM76 °FMild.9 mph53%29.88 "HgN/A
1:00 PM76 °FMild.10 mph60%29.90 "HgN/A
12:00 PM74 °FMild.10 mph60%29.91 "HgN/A
11:00 AM73 °FMild.12 mph63%29.93 "HgN/A
10:00 AM71 °FMild.14 mph65%29.94 "HgN/A
9:00 AM70 °FMild.12 mph68%29.95 "HgN/A
Weather by CustomWeather, © 2014

See weather overviewHow to use our weather pages